Location: Newark
(52.3500°N, 175.9667°E)
Time: 22:33:04
(UTC+00:00)

Altair - Pass Details

Date: 23 April 2021
Orbit: 1501 x 1683 km, 47.2° (Epoch: 05 May)

Event Time Altitude Azimuth Distance (km) Brightness Sun altitude
Rises 19:35:39 0° 259° (W) 4,863 9.6 22.5°
Reaches altitude 10° 19:38:51 10° 257° (WSW) 3,854 9.1 23.0°
Maximum altitude 19:48:29 66° 178° (S) 1,702 8.2 24.4°
Drops below altitude 10° 19:57:45 10° 99° (E) 3,713 11.4 25.8°
Sets 20:00:46 0° 97° (E) 4,677 11.4 26.3°
